Location: Maddington
(51.2000°N, 1.9167°W)
Time: 15:48:41
(UTC+00:00)

Cosmos 1125 Rocket - Pass Details

Date: 22 June 2021
Orbit: 757 x 780 km, 74.0° (Epoch: 28 July)

Event Time Altitude Azimuth Distance (km) Brightness Sun altitude
Rises 23:11:22 0° 340° (NNW) 3,243 8.7 -14.3°
Reaches altitude 10° 23:15:58 10° 17° (NNE) 2,319 7.0 -14.4°
Maximum altitude 23:17:17 11° 32° (NNE) 2,260 6.6 -14.5°
Drops below altitude 10° 23:18:36 10° 46° (NE) 2,321 6.4 -14.5°
Sets 23:23:12 0° 83° (E) 3,251 6.7 -14.7°
